This is the latest recevied weather packets stored in our database for station/object EA1FLU-10. If no packets are shown the sender has not sent any weather packets the latest 10 day(s).
| Time | Temp. | Humidity | Pressure | Rain* | Wind** | Luminosity | Snow |
|---|---|---|---|---|---|---|---|
| 1777531532 | 16.67° C | 61% | 1020.7 hPa | - | - | - | - |
| 1777529728 | 16.67° C | 62% | 1020.4 hPa | - | - | - | - |
| 1777527929 | 14.44° C | 61% | 1020.2 hPa | - | - | - | - |
| 1777526128 | 15° C | 61% | 1020 hPa | - | - | - | - |
| 1777524328 | 15° C | 60% | 1019.7 hPa | - | - | - | - |
| 1777522528 | 15° C | 60% | 1019.5 hPa | - | - | - | - |
| 1777520728 | 15° C | 60% | 1019.3 hPa | - | - | - | - |
| 1777518928 | 15° C | 60% | 1019.3 hPa | - | - | - | - |
| 1777517128 | 15° C | 60% | 1019.2 hPa | - | - | - | - |
| 1777515328 | 15° C | 60% | 1019 hPa | - | - | - | - |
| 1777513528 | 15.56° C | 59% | 1018.9 hPa | - | - | - | - |
| 1777511728 | 15.56° C | 59% | 1018.8 hPa | - | - | - | - |
| 1777509928 | 15.56° C | 59% | 1018.7 hPa | - | - | - | - |
| 1777508128 | 15.56° C | 59% | 1018.3 hPa | - | - | - | - |
| 1777506328 | 16.11° C | 59% | 1018 hPa | - | - | - | - |
| 1777504528 | 16.11° C | 58% | 1017.9 hPa | - | - | - | - |
| 1777502728 | 16.11° C | 58% | 1017.7 hPa | - | - | - | - |
| 1777500928 | 16.67° C | 58% | 1017.4 hPa | - | - | - | - |
| 1777499130 | 16.67° C | 58% | 1017.5 hPa | - | - | - | - |
| 1777497328 | 17.22° C | 57% | 1017.1 hPa | - | - | - | - |
| 1777495528 | 17.78° C | 57% | 1016.5 hPa | - | - | - | - |
| 1777493727 | 17.78° C | 57% | 1016 hPa | - | - | - | - |
| 1777491927 | 18.89° C | 58% | 1015.5 hPa | - | - | - | - |
| 1777490127 | 19.44° C | 58% | 1014.7 hPa | - | - | - | - |
| 1777488327 | 19.44° C | 56% | 1015.3 hPa | - | - | - | - |
* Rain since midnight (hover to see other rain measurements)
** Current wind speed in m/s (hover to see current wind gust speed)